YG1CIC-13 Weather Reports


time (UTC)temp
C
wind
direction
speed
KPH
gust
KPH
rain 1hr
cm
rain 24hr
cm
rain mn
cm
humidity
%
barometer
mb
20260508101752 32 0 0.0 0.0 0.00 0.00 0.00 70
20260508100752 33 0 0.0 0.0 0.00 0.00 0.00 70
20260508095751 33 0 0.0 0.0 0.00 0.00 0.00 69
20260508094750 33 0 0.0 0.0 0.00 0.00 0.00 66
20260508093750 33 0 0.0 0.0 0.00 0.00 0.00 66
20260508092749 34 0 0.0 0.0 0.00 0.00 0.00 66
20260508091748 34 0 0.0 0.0 0.00 0.00 0.00 66
20260508090748 34 0 0.0 0.0 0.00 0.00 0.00 66
20260508085747 34 0 0.0 0.0 0.00 0.00 0.00 65
20260508084755 34 0 0.0 0.0 0.00 0.00 0.00 66
20260508082746 34 0 0.0 0.0 0.00 0.00 0.00 66
20260508081746 34 0 0.0 0.0 0.00 0.00 0.00 65
20260508080745 35 0 0.0 0.0 0.00 0.00 0.00 63
20260508075744 35 0 0.0 0.0 0.00 0.00 0.00 63
20260508074744 35 0 0.0 0.0 0.00 0.00 0.00 60
20260508073743 35 0 0.0 0.0 0.00 0.00 0.00 61
20260508072750 35 0 0.0 0.0 0.00 0.00 0.00 61
20260508071743 36 0 0.0 0.0 0.00 0.00 0.00 60
20260508070742 35 0 0.0 0.0 0.00 0.00 0.00 61
20260508065741 35 0 0.0 0.0 0.00 0.00 0.00 59
20260508064741 36 0 0.0 0.0 0.00 0.00 0.00 60
20260508063740 36 0 0.0 0.0 0.00 0.00 0.00 60
20260508062740 36 0 0.0 0.0 0.00 0.00 0.00 59
20260508061739 36 0 0.0 0.0 0.00 0.00 0.00 58
20260508060738 36 0 0.0 0.0 0.00 0.00 0.00 58
20260508055738 36 0 0.0 0.0 0.00 0.00 0.00 58
20260508054737 37 0 0.0 0.0 0.00 0.00 0.00 58
20260508053737 36 0 0.0 0.0 0.00 0.00 0.00 59
20260508052736 37 0 0.0 0.0 0.00 0.00 0.00 58
20260508051742 37 0 0.0 0.0 0.00 0.00 0.00 58
20260508050735 36 0 0.0 0.0 0.00 0.00 0.00 59
20260508045734 36 0 0.0 0.0 0.00 0.00 0.00 61
20260508044734 36 0 0.0 0.0 0.00 0.00 0.00 61
20260508043733 36 0 0.0 0.0 0.00 0.00 0.00 62
20260508042732 37 0 0.0 0.0 0.00 0.00 0.00 60
20260508041732 37 0 0.0 0.0 0.00 0.00 0.00 61
20260508040738 36 0 0.0 0.0 0.00 0.00 0.00 60
20260508035731 36 0 0.0 0.0 0.00 0.00 0.00 59
20260508034730 37 0 0.0 0.0 0.00 0.00 0.00 58
20260508033730 36 0 0.0 0.0 0.00 0.00 0.00 60
20260508032729 36 0 0.0 0.0 0.00 0.00 0.00 60
20260508031728 37 0 0.0 0.0 0.00 0.00 0.00 59
20260508030728 37 0 0.0 0.0 0.00 0.00 0.00 59
20260508025727 36 0 0.0 0.0 0.00 0.00 0.00 60
20260508024727 38 0 0.0 0.0 0.00 0.00 0.00 57
20260508023726 37 0 0.0 0.0 0.00 0.00 0.00 59
20260508022725 38 0 0.0 0.0 0.00 0.00 0.00 57
20260508021725 39 0 0.0 0.0 0.00 0.00 0.00 55
20260508020724 40 0 0.0 0.0 0.00 0.00 0.00 54
20260508015724 38 0 0.0 0.0 0.00 0.00 0.00 58
20260508014723 36 0 0.0 0.0 0.00 0.00 0.00 61
20260508013722 35 0 0.0 0.0 0.00 0.00 0.00 63
20260508012722 35 0 0.0 0.0 0.00 0.00 0.00 66
20260508011721 35 0 0.0 0.0 0.00 0.00 0.00 67
20260508010720 32 0 0.0 0.0 0.00 0.00 0.00 72
20260508005720 33 0 0.0 0.0 0.00 0.00 0.00 69
20260508004719 33 0 0.0 0.0 0.00 0.00 0.00 71
20260508003718 32 0 0.0 0.0 0.00 0.00 0.00 74
20260508002718 32 0 0.0 0.0 0.00 0.00 0.00 75
20260508001717 30 0 0.0 0.0 0.00 0.00 0.00 84
20260508000724 29 0 0.0 0.0 0.00 0.00 0.00 87
20260507235716 28 0 0.0 0.0 0.00 0.00 0.00 89
20260507234715 28 0 0.0 0.0 0.00 0.00 0.00 95
20260507233715 27 0 0.0 0.0 0.00 0.00 0.00 96
20260507232714 27 0 0.0 0.0 0.00 0.00 0.00 93
20260507231714 27 0 0.0 0.0 0.00 0.00 0.00 96
20260507230714 27 0 0.0 0.0 0.00 0.00 0.00 95
20260507225713 27 0 0.0 0.0 0.00 0.00 0.00 98
20260507224712 27 0 0.0 0.0 0.00 0.00 0.00 93
20260507223711 27 0 0.0 0.0 0.00 0.00 0.00 95
20260507222711 27 0 0.0 0.0 0.00 0.00 0.00 96
20260507221710 27 0 0.0 0.0 0.00 0.00 0.00 91
20260507220710 27 0 0.0 0.0 0.00 0.00 0.00 90
20260507215709 27 0 0.0 0.0 0.00 0.00 0.00 90
20260507214709 27 0 0.0 0.0 0.00 0.00 0.00 91
20260507213708 27 0 0.0 0.0 0.00 0.00 0.00 89
20260507212707 27 0 0.0 0.0 0.00 0.00 0.00 89
20260507211707 27 0 0.0 0.0 0.00 0.00 0.00 92
20260507210706 27 0 0.0 0.0 0.00 0.00 0.00 90
20260507205705 27 0 0.0 0.0 0.00 0.00 0.00 89
20260507204705 27 0 0.0 0.0 0.00 0.00 0.00 90
20260507203704 27 0 0.0 0.0 0.00 0.00 0.00 89
20260507202704 27 0 0.0 0.0 0.00 0.00 0.00 90
20260507201703 27 0 0.0 0.0 0.00 0.00 0.00 89
20260507200702 27 0 0.0 0.0 0.00 0.00 0.00 86
20260507195702 27 0 0.0 0.0 0.00 0.00 0.00 88
20260507194701 27 0 0.0 0.0 0.00 0.00 0.00 89
20260507193701 28 0 0.0 0.0 0.00 0.00 0.00 87
20260507192700 28 0 0.0 0.0 0.00 0.00 0.00 88
20260507191659 28 0 0.0 0.0 0.00 0.00 0.00 89
20260507190659 28 0 0.0 0.0 0.00 0.00 0.00 88
20260507184658 28 0 0.0 0.0 0.00 0.00 0.00 89
20260507183658 28 0 0.0 0.0 0.00 0.00 0.00 87
20260507182657 28 0 0.0 0.0 0.00 0.00 0.00 88
20260507181656 28 0 0.0 0.0 0.00 0.00 0.00 87
20260507180656 28 0 0.0 0.0 0.00 0.00 0.00 86
20260507175655 28 0 0.0 0.0 0.00 0.00 0.00 86
20260507174655 28 0 0.0 0.0 0.00 0.00 0.00 88
20260507173654 28 0 0.0 0.0 0.00 0.00 0.00 86
20260507172653 28 0 0.0 0.0 0.00 0.00 0.00 83
20260507171653 28 0 0.0 0.0 0.00 0.00 0.00 85
20260507170652 29 0 0.0 0.0 0.00 0.00 0.00 86
20260507165652 29 0 0.0 0.0 0.00 0.00 0.00 85
20260507164651 29 0 0.0 0.0 0.00 0.00 0.00 87
20260507163650 29 0 0.0 0.0 0.00 0.00 0.00 85
20260507162650 29 0 0.0 0.0 0.00 0.00 0.00 86
20260507161649 29 0 0.0 0.0 0.00 0.00 0.00 86
20260507160649 29 0 0.0 0.0 0.00 0.00 0.00 86
20260507155649 29 0 0.0 0.0 0.00 0.00 0.00 86
20260507154647 29 0 0.0 0.0 0.00 0.00 0.00 87
20260507153647 29 0 0.0 0.0 0.00 0.00 0.00 87
20260507152646 29 0 0.0 0.0 0.00 0.00 0.00 86
20260507151646 29 0 0.0 0.0 0.00 0.00 0.00 86
20260507150645 29 0 0.0 0.0 0.00 0.00 0.00 86
20260507145645 29 0 0.0 0.0 0.00 0.00 0.00 86
20260507144644 29 0 0.0 0.0 0.00 0.00 0.00 84
20260507143643 29 0 0.0 0.0 0.00 0.00 0.00 85
20260507142643 29 0 0.0 0.0 0.00 0.00 0.00 83
20260507141642 29 0 0.0 0.0 0.00 0.00 0.00 85
20260507140642 29 0 0.0 0.0 0.00 0.00 0.00 84
20260507135641 29 0 0.0 0.0 0.00 0.00 0.00 84
20260507134640 30 0 0.0 0.0 0.00 0.00 0.00 84
20260507133640 30 0 0.0 0.0 0.00 0.00 0.00 83
20260507132639 30 0 0.0 0.0 0.00 0.00 0.00 82
20260507131639 30 0 0.0 0.0 0.00 0.00 0.00 81
20260507130638 30 0 0.0 0.0 0.00 0.00 0.00 81
20260507125637 30 0 0.0 0.0 0.00 0.00 0.00 80
20260507124644 30 0 0.0 0.0 0.00 0.00 0.00 80
20260507123636 30 0 0.0 0.0 0.00 0.00 0.00 80
20260507122635 30 0 0.0 0.0 0.00 0.00 0.00 79
20260507121634 30 0 0.0 0.0 0.00 0.00 0.00 79
20260507120633 30 0 0.0 0.0 0.00 0.00 0.00 78
20260507115632 30 0 0.0 0.0 0.00 0.00 0.00 79
20260507114631 30 0 0.0 0.0 0.00 0.00 0.00 79
20260507113631 31 0 0.0 0.0 0.00 0.00 0.00 79
20260507112631 31 0 0.0 0.0 0.00 0.00 0.00 79
20260507111631 31 0 0.0 0.0 0.00 0.00 0.00 78
20260507110631 31 0 0.0 0.0 0.00 0.00 0.00 78
20260507105631 31 0 0.0 0.0 0.00 0.00 0.00 78
20260507104630 31 0 0.0 0.0 0.00 0.00 0.00 76
20260507103630 31 0 0.0 0.0 0.00 0.00 0.00 75
20260507102630 32 0 0.0 0.0 0.00 0.00 0.00 74